STARLINK-1260, 45404

Orbit data source: Space-Track

STARLINK-1260, 45404 is a payload satellite owned by SpaceX/Seattle (US) in LEO that was launched on Wed, 18 Mar 2020 UTC via an FALCON 9 launch vehicle from the Air Force Eastern Test Range (AFETR). Payload-class satellites include a variety of spacecraft equipped with specific instruments for various scientific and technological missions. These include communications satellites like Starlink; space stations such as the ISS; scientific satellites like the Hubble; Earth observation satellites from companies like Planet Labs, Umbra, and HawkEye 360; GPS; miniature CubeSats for education and research; and military/defense satellites.

Loading next visibility...
Identifier
45404, 2020-019AW
Orbit
LEO
Country
Flag of USUS
Related business
Manufacturer
SpaceX/Seattle
Mission
Partially operational Commercial Communications
Bus & Motor
STARLINK, Unknown motor
Mass
260 kg wet, ~248 kg dry
Launch date (UTC)
2020-03-18 (6 years ago)
Launch vehicle
FALCON 9
Launch site
Air Force Eastern Test Range (AFETR)
Object type
Payload
Rocket body
Debris
Shape & HBR
Box + 1 Pan, 10.1 m
Radar Cross Section
13.562 m², Large (>1 m²)

Expand to show TLE details & history
Last TLE update: 2 days ago

TLE from 2 days ago
0 STARLINK-1260
1 45404U 20019AW  26170.97057623  .00043247  00000-0  11046-2 0  9998
2 45404  53.1558  11.1943 0004294 133.6285 226.5076 15.39067646345672
Epoch: 2026-06-19T23:17Z
TLE epoch observation values (Epoch: 2026-06-19T23:17:37.786Z)
Latitude
-0.00004°
Longitude
113.59492°
Altitude
451.786 km
Speed
7.641 km/s
True Right ascension
00h 44m 46s
True Declination
0° 00' 00"
Sunlit
Object was in daylight at epoch
Visualization orbit readout
Latitude
Unknown
Longitude
Unknown
Altitude
Unknown
Speed
Unknown
Apparent Right ascension
Unknown
Apparent Declination
Unknown
Sunlit
N/A
Visualization observer readout
Local Sidereal Time
21:35:17
Azimuth
Unknown
Elevation
Unknown
Doppler factor
Unknown
Orbital elements
Apogee altitude
452.055 km
Perigee altitude
446.192 km
Semi-major axis
6,827.26 km
Eccentricity
0.00043
Inclination
53.1558°
RAAN
11.1943°
Arg. of periapsis
133.6285°
True anomaly
226.47192°
Mean anomaly
226.5076°
Eccentric anomaly
226.48976°
Mean motion
3.84745 °/min
Orbital period
93.57 mins
BSTAR
0.0011046
Loading maneuver chart data...
Computing Atmospheric mass density...

Documentation

Showing up to 5 results
|